Time,TemperatureF,DewpointF,PressureIn,WindDirection,WindDirectionDegrees,WindSpeedMPH,WindSpeedGustMPH,Humidity,HourlyPrecipIn,Conditions,Clouds,dailyrainin,SoftwareType,DateUTC
2013-09-09 00:00:00,76.6,72.8,29.96,North,360,2.0,3.0,88,0.00,,---,0.00,VWS V14.01,2013-09-09 04:00:00,
2013-09-09 00:01:00,76.6,72.8,29.97,North,360,2.0,3.0,88,0.00,,---,0.00,VWS V14.01,2013-09-09 04:01:00,
2013-09-09 00:06:00,76.5,72.7,29.97,North,360,2.0,3.0,88,0.00,,---,0.00,VWS V14.01,2013-09-09 04:06:00,
2013-09-09 00:10:00,76.5,72.7,29.96,North,360,0.0,3.0,88,0.00,,---,0.00,VWS V14.01,2013-09-09 04:10:00,
2013-09-09 00:11:00,76.5,72.7,29.96,North,360,0.0,0.0,88,0.00,,---,0.00,VWS V14.01,2013-09-09 04:11:00,
2013-09-09 00:16:00,76.4,72.6,29.96,North,360,0.0,3.0,88,0.00,,---,0.00,VWS V14.01,2013-09-09 04:16:00,
2013-09-09 00:20:00,76.4,72.9,29.96,North,360,3.0,3.0,89,0.00,,---,0.00,VWS V14.01,2013-09-09 04:20:00,
2013-09-09 00:21:00,76.4,72.9,29.96,North,360,1.0,3.0,89,0.00,,---,0.00,VWS V14.01,2013-09-09 04:21:00,
2013-09-09 00:26:00,76.5,73.0,29.96,North,360,3.0,3.0,89,0.00,,---,0.00,VWS V14.01,2013-09-09 04:26:00,
2013-09-09 00:30:00,76.4,72.9,29.96,North,360,0.0,3.0,89,0.00,,---,0.00,VWS V14.01,2013-09-09 04:30:00,
2013-09-09 00:31:00,76.4,72.9,29.96,North,360,0.0,0.0,89,0.00,,---,0.00,VWS V14.01,2013-09-09 04:31:00,
2013-09-09 00:36:00,76.3,72.8,29.95,North,360,0.0,0.0,89,0.00,,---,0.00,VWS V14.01,2013-09-09 04:36:00,
2013-09-09 00:40:00,76.2,72.7,29.95,North,360,0.0,0.0,89,0.00,,---,0.00,VWS V14.01,2013-09-09 04:40:00,
2013-09-09 00:41:00,76.2,72.4,29.95,North,360,0.0,0.0,88,0.00,,---,0.00,VWS V14.01,2013-09-09 04:41:00,
2013-09-09 00:46:00,76.0,72.5,29.95,North,360,0.0,0.0,89,0.00,,---,0.00,VWS V14.01,2013-09-09 04:46:00,
2013-09-09 00:50:00,75.8,72.3,29.95,North,360,0.0,0.0,89,0.00,,---,0.00,VWS V14.01,2013-09-09 04:50:00,
2013-09-09 00:51:00,75.8,72.3,29.95,North,360,0.0,0.0,89,0.00,,---,0.00,VWS V14.01,2013-09-09 04:51:00,
2013-09-09 00:56:00,75.5,72.4,29.95,North,360,0.0,0.0,90,0.00,,---,0.00,VWS V14.01,2013-09-09 04:56:00,
2013-09-09 01:00:00,75.3,71.8,29.95,North,360,0.0,0.0,89,0.00,,---,0.00,VWS V14.01,2013-09-09 05:00:00,
2013-09-09 01:01:00,75.3,71.8,29.95,North,360,0.0,0.0,89,0.00,,---,0.00,VWS V14.01,2013-09-09 05:01:00,
2013-09-09 01:06:00,75.0,71.9,29.95,North,360,0.0,0.0,90,0.00,,---,0.00,VWS V14.01,2013-09-09 05:06:00,
2013-09-09 01:10:00,74.8,71.7,29.95,North,360,0.0,0.0,90,0.00,,---,0.00,VWS V14.01,2013-09-09 05:10:00,
2013-09-09 01:11:00,74.8,71.7,29.95,North,360,0.0,0.0,90,0.00,,---,0.00,VWS V14.01,2013-09-09 05:11:00,
2013-09-09 01:16:00,74.6,71.8,29.95,North,360,0.0,0.0,91,0.00,,---,0.00,VWS V14.01,2013-09-09 05:16:00,
2013-09-09 01:20:00,74.4,71.6,29.95,North,360,0.0,0.0,91,0.00,,---,0.00,VWS V14.01,2013-09-09 05:20:00,
2013-09-09 01:21:00,74.3,71.5,29.95,North,360,0.0,0.0,91,0.00,,---,0.00,VWS V14.01,2013-09-09 05:21:00,
2013-09-09 01:26:00,74.1,71.6,29.95,North,360,0.0,0.0,92,0.00,,---,0.00,VWS V14.01,2013-09-09 05:26:00,
2013-09-09 01:30:00,73.9,71.4,29.95,North,360,0.0,0.0,92,0.00,,---,0.00,VWS V14.01,2013-09-09 05:30:00,
2013-09-09 01:31:00,73.9,71.4,29.95,North,360,0.0,0.0,92,0.00,,---,0.00,VWS V14.01,2013-09-09 05:31:00,
2013-09-09 01:36:00,73.7,71.2,29.95,North,360,0.0,0.0,92,0.00,,---,0.00,VWS V14.01,2013-09-09 05:36:00,
2013-09-09 01:40:00,73.6,71.5,29.95,North,360,0.0,0.0,93,0.00,,---,0.00,VWS V14.01,2013-09-09 05:40:00,
2013-09-09 01:41:00,73.6,71.5,29.95,North,360,0.0,0.0,93,0.00,,---,0.00,VWS V14.01,2013-09-09 05:41:00,
2013-09-09 01:46:00,73.5,71.4,29.94,North,360,0.0,3.0,93,0.00,,---,0.00,VWS V14.01,2013-09-09 05:46:00,
2013-09-09 01:50:00,73.4,71.3,29.94,North,360,0.0,3.0,93,0.00,,---,0.00,VWS V14.01,2013-09-09 05:50:00,
2013-09-09 01:51:00,73.4,71.3,29.94,North,360,0.0,0.0,93,0.00,,---,0.00,VWS V14.01,2013-09-09 05:51:00,
2013-09-09 01:56:00,73.3,71.2,29.94,North,360,0.0,0.0,93,0.00,,---,0.00,VWS V14.01,2013-09-09 05:56:00,
2013-09-09 02:00:00,73.3,71.2,29.94,North,360,0.0,0.0,93,0.00,,---,0.00,VWS V14.01,2013-09-09 06:00:00,
2013-09-09 02:01:00,73.3,71.2,29.94,North,360,0.0,0.0,93,0.00,,---,0.00,VWS V14.01,2013-09-09 06:01:00,
2013-09-09 02:06:00,73.3,71.2,29.94,North,360,0.0,0.0,93,0.00,,---,0.00,VWS V14.01,2013-09-09 06:06:00,
2013-09-09 02:10:00,73.3,71.2,29.94,North,360,0.0,0.0,93,0.00,,---,0.00,VWS V14.01,2013-09-09 06:10:00,
2013-09-09 02:11:00,73.3,71.2,29.94,North,360,0.0,0.0,93,0.00,,---,0.00,VWS V14.01,2013-09-09 06:11:00,
2013-09-09 02:16:00,73.2,71.1,29.94,North,360,0.0,0.0,93,0.00,,---,0.00,VWS V14.01,2013-09-09 06:16:00,
2013-09-09 02:20:00,73.2,71.4,29.94,North,360,0.0,0.0,94,0.00,,---,0.00,VWS V14.01,2013-09-09 06:20:00,
2013-09-09 02:21:00,73.2,71.4,29.94,North,360,0.0,0.0,94,0.00,,---,0.00,VWS V14.01,2013-09-09 06:21:00,
2013-09-09 02:26:00,73.3,71.5,29.94,North,360,0.0,0.0,94,0.00,,---,0.00,VWS V14.01,2013-09-09 06:26:00,
2013-09-09 02:30:00,73.2,71.4,29.93,North,360,0.0,0.0,94,0.00,,---,0.00,VWS V14.01,2013-09-09 06:30:00,
2013-09-09 02:31:00,73.1,71.3,29.93,North,360,0.0,0.0,94,0.00,,---,0.00,VWS V14.01,2013-09-09 06:31:00,
2013-09-09 02:36:00,73.0,71.2,29.93,North,360,0.0,0.0,94,0.00,,---,0.00,VWS V14.01,2013-09-09 06:36:00,
2013-09-09 02:40:00,72.9,71.1,29.93,North,360,0.0,0.0,94,0.00,,---,0.00,VWS V14.01,2013-09-09 06:40:00,
2013-09-09 02:41:00,72.8,71.0,29.93,North,360,0.0,0.0,94,0.00,,---,0.00,VWS V14.01,2013-09-09 06:41:00,
2013-09-09 02:46:00,72.7,70.9,29.93,North,360,0.0,0.0,94,0.00,,---,0.00,VWS V14.01,2013-09-09 06:46:00,
2013-09-09 02:50:00,72.6,70.8,29.93,North,360,0.0,0.0,94,0.00,,---,0.00,VWS V14.01,2013-09-09 06:50:00,
2013-09-09 02:51:00,72.6,70.8,29.93,North,360,0.0,0.0,94,0.00,,---,0.00,VWS V14.01,2013-09-09 06:51:00,
2013-09-09 02:56:00,72.5,70.7,29.93,North,360,0.0,0.0,94,0.00,,---,0.00,VWS V14.01,2013-09-09 06:56:00,
2013-09-09 03:00:00,72.3,70.5,29.93,North,360,0.0,0.0,94,0.00,,---,0.00,VWS V14.01,2013-09-09 07:00:00,
2013-09-09 03:01:00,72.3,70.5,29.93,North,360,0.0,0.0,94,0.00,,---,0.00,VWS V14.01,2013-09-09 07:01:00,
2013-09-09 03:06:00,72.2,70.4,29.93,North,360,0.0,0.0,94,0.00,,---,0.00,VWS V14.01,2013-09-09 07:06:00,
2013-09-09 03:10:00,72.1,70.3,29.93,North,360,0.0,0.0,94,0.00,,---,0.00,VWS V14.01,2013-09-09 07:10:00,
2013-09-09 03:11:00,72.1,70.3,29.93,North,360,0.0,0.0,94,0.00,,---,0.00,VWS V14.01,2013-09-09 07:11:00,
2013-09-09 03:16:00,72.1,70.3,29.93,North,360,0.0,0.0,94,0.00,,---,0.00,VWS V14.01,2013-09-09 07:16:00,
2013-09-09 03:20:00,72.2,70.7,29.93,North,360,0.0,0.0,95,0.00,,---,0.00,VWS V14.01,2013-09-09 07:20:00,
2013-09-09 03:21:00,72.2,70.7,29.93,North,360,0.0,0.0,95,0.00,,---,0.00,VWS V14.01,2013-09-09 07:21:00,
2013-09-09 03:26:00,72.3,70.5,29.93,North,360,0.0,0.0,94,0.00,,---,0.00,VWS V14.01,2013-09-09 07:26:00,
2013-09-09 03:30:00,72.2,70.4,29.93,North,360,0.0,0.0,94,0.00,,---,0.00,VWS V14.01,2013-09-09 07:30:00,
2013-09-09 03:31:00,72.2,70.7,29.92,North,360,0.0,0.0,95,0.00,,---,0.00,VWS V14.01,2013-09-09 07:31:00,
2013-09-09 03:36:00,72.1,70.3,29.92,North,360,0.0,0.0,94,0.00,,---,0.00,VWS V14.01,2013-09-09 07:36:00,
2013-09-09 03:40:00,72.1,70.3,29.93,North,360,0.0,0.0,94,0.00,,---,0.00,VWS V14.01,2013-09-09 07:40:00,
2013-09-09 03:41:00,72.0,70.2,29.93,North,360,0.0,0.0,94,0.00,,---,0.00,VWS V14.01,2013-09-09 07:41:00,
2013-09-09 03:46:00,72.0,70.2,29.92,North,360,0.0,0.0,94,0.00,,---,0.00,VWS V14.01,2013-09-09 07:46:00,
2013-09-09 03:50:00,71.9,70.1,29.92,North,360,0.0,0.0,94,0.00,,---,0.00,VWS V14.01,2013-09-09 07:50:00,
2013-09-09 03:51:00,71.9,70.1,29.92,North,360,0.0,0.0,94,0.00,,---,0.00,VWS V14.01,2013-09-09 07:51:00,
2013-09-09 03:56:00,72.0,70.5,29.92,North,360,0.0,0.0,95,0.00,,---,0.00,VWS V14.01,2013-09-09 07:56:00,
2013-09-09 04:00:00,72.0,70.5,29.92,North,360,2.0,4.0,95,0.00,,---,0.00,VWS V14.01,2013-09-09 08:00:00,
2013-09-09 04:01:00,72.0,70.5,29.92,North,360,1.0,2.0,95,0.00,,---,0.00,VWS V14.01,2013-09-09 08:01:00,
2013-09-09 04:06:00,72.0,70.5,29.92,North,360,0.0,2.0,95,0.00,,---,0.00,VWS V14.01,2013-09-09 08:06:00,
2013-09-09 04:10:00,72.1,70.6,29.92,North,360,1.0,3.0,95,0.00,,---,0.00,VWS V14.01,2013-09-09 08:10:00,
2013-09-09 04:11:00,72.1,70.6,29.92,North,360,0.0,1.0,95,0.00,,---,0.00,VWS V14.01,2013-09-09 08:11:00,
2013-09-09 04:16:00,72.2,70.7,29.92,North,360,0.0,1.0,95,0.00,,---,0.00,VWS V14.01,2013-09-09 08:16:00,
2013-09-09 04:20:00,72.3,70.8,29.92,North,360,0.0,1.0,95,0.00,,---,0.00,VWS V14.01,2013-09-09 08:20:00,
2013-09-09 04:21:00,72.3,70.8,29.92,North,360,0.0,0.0,95,0.00,,---,0.00,VWS V14.01,2013-09-09 08:21:00,
2013-09-09 04:26:00,72.4,70.9,29.92,North,360,0.0,0.0,95,0.00,,---,0.00,VWS V14.01,2013-09-09 08:26:00,
2013-09-09 04:30:00,72.4,70.9,29.92,North,360,1.0,2.0,95,0.00,,---,0.00,VWS V14.01,2013-09-09 08:30:00,
2013-09-09 04:31:00,72.3,70.8,29.92,North,360,1.0,1.0,95,0.00,,---,0.00,VWS V14.01,2013-09-09 08:31:00,
2013-09-09 04:36:00,72.3,70.8,29.92,North,360,0.0,2.0,95,0.00,,---,0.00,VWS V14.01,2013-09-09 08:36:00,
2013-09-09 04:40:00,72.2,70.7,29.92,North,360,0.0,2.0,95,0.00,,---,0.00,VWS V14.01,2013-09-09 08:40:00,
2013-09-09 04:41:00,72.2,70.7,29.92,North,360,0.0,0.0,95,0.00,,---,0.00,VWS V14.01,2013-09-09 08:41:00,
2013-09-09 04:46:00,72.2,70.7,29.93,North,360,0.0,3.0,95,0.00,,---,0.00,VWS V14.01,2013-09-09 08:46:00,
2013-09-09 04:50:00,72.1,70.6,29.93,North,360,0.0,3.0,95,0.00,,---,0.00,VWS V14.01,2013-09-09 08:50:00,
2013-09-09 04:51:00,72.1,70.6,29.93,North,360,0.0,0.0,95,0.00,,---,0.00,VWS V14.01,2013-09-09 08:51:00,
2013-09-09 04:56:00,72.2,70.7,29.92,North,360,4.0,4.0,95,0.00,,---,0.00,VWS V14.01,2013-09-09 08:56:00,
2013-09-09 05:00:00,72.2,70.7,29.92,North,360,0.0,4.0,95,0.00,,---,0.00,VWS V14.01,2013-09-09 09:00:00,
2013-09-09 05:01:00,72.2,70.7,29.92,North,360,0.0,0.0,95,0.00,,---,0.00,VWS V14.01,2013-09-09 09:01:00,
2013-09-09 05:06:00,72.3,70.8,29.92,North,360,2.0,3.0,95,0.00,,---,0.00,VWS V14.01,2013-09-09 09:06:00,
2013-09-09 05:10:00,72.4,70.9,29.93,North,360,1.0,3.0,95,0.00,,---,0.00,VWS V14.01,2013-09-09 09:10:00,
2013-09-09 05:11:00,72.4,70.9,29.92,North,360,0.0,1.0,95,0.00,,---,0.00,VWS V14.01,2013-09-09 09:11:00,
2013-09-09 05:16:00,72.4,70.9,29.93,North,360,2.0,2.0,95,0.00,,---,0.00,VWS V14.01,2013-09-09 09:16:00,
2013-09-09 05:20:00,72.4,70.9,29.93,North,360,0.0,2.0,95,0.00,,---,0.00,VWS V14.01,2013-09-09 09:20:00,
2013-09-09 05:21:00,72.4,70.9,29.93,North,360,0.0,0.0,95,0.00,,---,0.00,VWS V14.01,2013-09-09 09:21:00,
2013-09-09 05:26:00,72.3,70.8,29.93,North,360,0.0,0.0,95,0.00,,---,0.00,VWS V14.01,2013-09-09 09:26:00,
2013-09-09 05:30:00,72.2,70.7,29.93,North,360,3.0,3.0,95,0.00,,---,0.00,VWS V14.01,2013-09-09 09:30:00,
2013-09-09 05:31:00,72.2,70.7,29.93,North,360,1.0,3.0,95,0.00,,---,0.00,VWS V14.01,2013-09-09 09:31:00,
2013-09-09 05:36:00,72.3,70.8,29.93,North,360,2.0,4.0,95,0.00,,---,0.00,VWS V14.01,2013-09-09 09:36:00,
2013-09-09 05:40:00,72.3,70.8,29.93,North,360,0.0,4.0,95,0.00,,---,0.00,VWS V14.01,2013-09-09 09:40:00,
2013-09-09 05:41:00,72.3,70.8,29.93,North,360,2.0,2.0,95,0.00,,---,0.00,VWS V14.01,2013-09-09 09:41:00,
2013-09-09 05:46:00,72.3,70.8,29.93,North,360,2.0,3.0,95,0.00,,---,0.00,VWS V14.01,2013-09-09 09:46:00,
2013-09-09 05:50:00,72.2,70.7,29.93,North,360,3.0,3.0,95,0.00,,---,0.00,VWS V14.01,2013-09-09 09:50:00,
2013-09-09 05:51:00,72.2,70.7,29.93,North,360,1.0,4.0,95,0.00,,---,0.00,VWS V14.01,2013-09-09 09:51:00,
2013-09-09 05:56:00,72.2,70.7,29.93,North,360,1.0,4.0,95,0.00,,---,0.00,VWS V14.01,2013-09-09 09:56:00,
2013-09-09 06:00:00,72.3,70.8,29.94,North,360,2.0,4.0,95,0.00,,---,0.00,VWS V14.01,2013-09-09 10:00:00,
2013-09-09 06:01:00,72.3,70.8,29.94,North,360,3.0,3.0,95,0.00,,---,0.00,VWS V14.01,2013-09-09 10:01:00,
2013-09-09 06:06:00,72.5,71.3,29.94,North,360,2.0,4.0,96,0.00,,---,0.00,VWS V14.01,2013-09-09 10:06:00,
2013-09-09 06:10:00,72.6,71.1,29.94,North,360,4.0,5.0,95,0.00,,---,0.00,VWS V14.01,2013-09-09 10:10:00,
2013-09-09 06:11:00,72.6,71.1,29.94,North,360,3.0,5.0,95,0.00,,---,0.00,VWS V14.01,2013-09-09 10:11:00,
2013-09-09 06:16:00,72.7,71.2,29.94,North,360,1.0,5.0,95,0.00,,---,0.00,VWS V14.01,2013-09-09 10:16:00,
2013-09-09 06:20:00,72.8,71.3,29.94,North,360,1.0,5.0,95,0.00,,---,0.00,VWS V14.01,2013-09-09 10:20:00,
2013-09-09 06:21:00,72.8,71.3,29.94,North,360,1.0,2.0,95,0.00,,---,0.00,VWS V14.01,2013-09-09 10:21:00,
2013-09-09 06:26:00,72.8,71.3,29.94,North,360,2.0,4.0,95,0.00,,---,0.00,VWS V14.01,2013-09-09 10:26:00,
2013-09-09 06:30:00,72.8,71.3,29.94,North,360,1.0,4.0,95,0.00,,---,0.00,VWS V14.01,2013-09-09 10:30:00,
2013-09-09 06:31:00,72.8,71.3,29.94,North,360,1.0,1.0,95,0.00,,---,0.00,VWS V14.01,2013-09-09 10:31:00,
2013-09-09 06:36:00,72.7,71.2,29.95,North,360,0.0,3.0,95,0.00,,---,0.00,VWS V14.01,2013-09-09 10:36:00,
2013-09-09 06:40:00,72.8,71.3,29.94,North,360,5.0,5.0,95,0.00,,---,0.00,VWS V14.01,2013-09-09 10:40:00,
2013-09-09 06:41:00,72.8,71.3,29.94,North,360,3.0,5.0,95,0.00,,---,0.00,VWS V14.01,2013-09-09 10:41:00,
2013-09-09 06:46:00,72.8,71.3,29.94,North,360,1.0,6.0,95,0.00,,---,0.00,VWS V14.01,2013-09-09 10:46:00,
2013-09-09 06:50:00,72.9,71.4,29.95,North,360,0.0,6.0,95,0.00,,---,0.00,VWS V14.01,2013-09-09 10:50:00,
2013-09-09 06:51:00,72.9,71.4,29.95,North,360,0.0,0.0,95,0.00,,---,0.00,VWS V14.01,2013-09-09 10:51:00,
2013-09-09 06:56:00,73.0,71.5,29.95,North,360,0.0,4.0,95,0.00,,---,0.00,VWS V14.01,2013-09-09 10:56:00,
2013-09-09 07:00:00,73.1,71.6,29.95,North,360,3.0,5.0,95,0.00,,---,0.00,VWS V14.01,2013-09-09 11:00:00,
2013-09-09 07:01:00,73.1,71.6,29.95,North,360,2.0,4.0,95,0.00,,---,0.00,VWS V14.01,2013-09-09 11:01:00,
2013-09-09 07:06:00,73.1,71.6,29.95,North,360,4.0,4.0,95,0.00,,---,0.00,VWS V14.01,2013-09-09 11:06:00,
2013-09-09 07:10:00,73.3,71.8,29.95,North,360,3.0,5.0,95,0.00,,---,0.00,VWS V14.01,2013-09-09 11:10:00,
2013-09-09 07:11:00,73.3,71.8,29.95,North,360,1.0,3.0,95,0.00,,---,0.00,VWS V14.01,2013-09-09 11:11:00,
2013-09-09 07:16:00,73.3,71.8,29.95,North,360,3.0,5.0,95,0.00,,---,0.00,VWS V14.01,2013-09-09 11:16:00,
2013-09-09 07:20:00,73.2,71.7,29.95,North,360,2.0,5.0,95,0.00,,---,0.00,VWS V14.01,2013-09-09 11:20:00,
2013-09-09 07:21:00,73.2,71.7,29.95,North,360,3.0,3.0,95,0.00,,---,0.00,VWS V14.01,2013-09-09 11:21:00,
2013-09-09 07:26:00,73.3,71.8,29.95,North,360,0.0,5.0,95,0.00,,---,0.00,VWS V14.01,2013-09-09 11:26:00,
2013-09-09 07:30:00,73.4,71.9,29.95,North,360,4.0,5.0,95,0.00,,---,0.00,VWS V14.01,2013-09-09 11:30:00,
2013-09-09 07:31:00,73.4,71.9,29.95,North,360,3.0,4.0,95,0.00,,---,0.00,VWS V14.01,2013-09-09 11:31:00,
2013-09-09 07:36:00,73.6,72.1,29.96,North,360,4.0,8.0,95,0.00,,---,0.00,VWS V14.01,2013-09-09 11:36:00,
2013-09-09 07:40:00,73.9,72.4,29.96,North,360,5.0,8.0,95,0.00,,---,0.00,VWS V14.01,2013-09-09 11:40:00,
2013-09-09 07:41:00,73.9,72.4,29.96,North,360,6.0,7.0,95,0.00,,---,0.00,VWS V14.01,2013-09-09 11:41:00,
2013-09-09 07:46:00,74.3,72.8,29.96,North,360,0.0,7.0,95,0.00,,---,0.00,VWS V14.01,2013-09-09 11:46:00,
2013-09-09 07:50:00,74.8,73.0,29.96,North,360,1.0,7.0,94,0.00,,---,0.00,VWS V14.01,2013-09-09 11:50:00,
2013-09-09 07:51:00,74.8,73.0,29.96,North,360,0.0,1.0,94,0.00,,---,0.00,VWS V14.01,2013-09-09 11:51:00,
2013-09-09 07:56:00,75.4,73.2,29.97,North,360,1.0,5.0,93,0.00,,---,0.00,VWS V14.01,2013-09-09 11:56:00,
2013-09-09 08:00:00,75.9,73.4,29.96,North,360,1.0,5.0,92,0.00,,---,0.00,VWS V14.01,2013-09-09 12:00:00,
2013-09-09 08:01:00,76.0,73.5,29.97,North,360,1.0,3.0,92,0.00,,---,0.00,VWS V14.01,2013-09-09 12:01:00,
2013-09-09 08:06:00,76.6,73.8,29.97,North,360,5.0,5.0,91,0.00,,---,0.00,VWS V14.01,2013-09-09 12:06:00,
2013-09-09 08:10:00,77.3,73.8,29.97,North,360,3.0,7.0,89,0.00,,---,0.00,VWS V14.01,2013-09-09 12:10:00,
2013-09-09 08:11:00,77.3,73.8,29.97,North,360,2.0,4.0,89,0.00,,---,0.00,VWS V14.01,2013-09-09 12:11:00,
2013-09-09 08:16:00,77.9,74.1,29.97,North,360,2.0,7.0,88,0.00,,---,0.00,VWS V14.01,2013-09-09 12:16:00,
2013-09-09 08:20:00,78.3,74.1,29.97,North,360,2.0,7.0,87,0.00,,---,0.00,VWS V14.01,2013-09-09 12:20:00,
2013-09-09 08:21:00,78.3,74.1,29.97,North,360,5.0,5.0,87,0.00,,---,0.00,VWS V14.01,2013-09-09 12:21:00,
2013-09-09 08:26:00,78.5,74.3,29.97,North,360,5.0,8.0,87,0.00,,---,0.00,VWS V14.01,2013-09-09 12:26:00,
2013-09-09 08:30:00,78.8,74.3,29.98,North,360,4.0,8.0,86,0.00,,---,0.00,VWS V14.01,2013-09-09 12:30:00,
2013-09-09 08:31:00,78.8,74.3,29.98,North,360,4.0,4.0,86,0.00,,---,0.00,VWS V14.01,2013-09-09 12:31:00,
2013-09-09 08:36:00,78.9,74.4,29.98,North,360,1.0,5.0,86,0.00,,---,0.00,VWS V14.01,2013-09-09 12:36:00,
2013-09-09 08:40:00,79.4,74.8,29.98,North,360,5.0,6.0,86,0.00,,---,0.00,VWS V14.01,2013-09-09 12:40:00,
2013-09-09 08:41:00,79.4,74.8,29.98,North,360,7.0,7.0,86,0.00,,---,0.00,VWS V14.01,2013-09-09 12:41:00,
2013-09-09 08:46:00,79.9,74.6,29.98,North,360,8.0,9.0,84,0.00,,---,0.00,VWS V14.01,2013-09-09 12:46:00,
2013-09-09 08:50:00,79.9,75.0,29.98,North,360,4.0,9.0,85,0.00,,---,0.00,VWS V14.01,2013-09-09 12:50:00,
2013-09-09 08:51:00,79.9,75.0,29.98,North,360,4.0,4.0,85,0.00,,---,0.00,VWS V14.01,2013-09-09 12:51:00,
2013-09-09 08:56:00,80.2,75.3,29.98,North,360,4.0,8.0,85,0.00,,---,0.00,VWS V14.01,2013-09-09 12:56:00,
2013-09-09 09:00:00,80.2,74.9,29.98,North,360,4.0,8.0,84,0.00,,---,0.00,VWS V14.01,2013-09-09 13:00:00,
2013-09-09 09:01:00,80.2,74.9,29.98,North,360,4.0,7.0,84,0.00,,---,0.00,VWS V14.01,2013-09-09 13:01:00,
2013-09-09 09:06:00,79.9,75.0,29.98,North,360,2.0,8.0,85,0.00,,---,0.00,VWS V14.01,2013-09-09 13:06:00,
2013-09-09 09:10:00,80.0,75.1,29.98,North,360,7.0,11.0,85,0.00,,---,0.00,VWS V14.01,2013-09-09 13:10:00,
2013-09-09 09:11:00,80.0,75.1,29.98,North,360,5.0,7.0,85,0.00,,---,0.00,VWS V14.01,2013-09-09 13:11:00,
2013-09-09 09:16:00,80.3,75.0,29.98,North,360,6.0,8.0,84,0.00,,---,0.00,VWS V14.01,2013-09-09 13:16:00,
2013-09-09 09:20:00,80.7,75.4,29.98,North,360,9.0,11.0,84,0.00,,---,0.00,VWS V14.01,2013-09-09 13:20:00,
2013-09-09 09:21:00,80.7,75.4,29.98,North,360,7.0,9.0,84,0.00,,---,0.00,VWS V14.01,2013-09-09 13:21:00,
2013-09-09 09:26:00,81.2,75.6,29.98,North,360,9.0,9.0,83,0.00,,---,0.00,VWS V14.01,2013-09-09 13:26:00,
2013-09-09 09:30:00,81.4,75.7,29.98,North,360,7.0,11.0,83,0.00,,---,0.00,VWS V14.01,2013-09-09 13:30:00,
2013-09-09 09:31:00,81.5,75.8,29.98,North,360,5.0,7.0,83,0.00,,---,0.00,VWS V14.01,2013-09-09 13:31:00,
2013-09-09 09:36:00,81.7,75.7,29.98,North,360,6.0,9.0,82,0.00,,---,0.00,VWS V14.01,2013-09-09 13:36:00,
2013-09-09 09:40:00,81.9,76.2,29.99,North,360,6.0,9.0,83,0.00,,---,0.00,VWS V14.01,2013-09-09 13:40:00,
2013-09-09 09:41:00,82.0,76.3,29.99,North,360,5.0,6.0,83,0.00,,---,0.00,VWS V14.01,2013-09-09 13:41:00,
2013-09-09 09:46:00,82.5,76.1,29.99,North,360,5.0,10.0,81,0.00,,---,0.00,VWS V14.01,2013-09-09 13:46:00,
2013-09-09 09:50:00,83.0,76.2,29.99,North,360,3.0,10.0,80,0.00,,---,0.00,VWS V14.01,2013-09-09 13:50:00,
2013-09-09 09:51:00,83.0,76.2,29.99,North,360,2.0,3.0,80,0.00,,---,0.00,VWS V14.01,2013-09-09 13:51:00,
2013-09-09 09:56:00,83.6,76.8,29.99,North,360,5.0,8.0,80,0.00,,---,0.00,VWS V14.01,2013-09-09 13:56:00,
2013-09-09 10:00:00,84.1,76.5,29.99,North,360,6.0,12.0,78,0.00,,---,0.00,VWS V14.01,2013-09-09 14:00:00,
2013-09-09 10:01:00,84.1,76.5,29.99,North,360,6.0,6.0,78,0.00,,---,0.00,VWS V14.01,2013-09-09 14:01:00,
2013-09-09 10:06:00,84.3,76.3,29.99,North,360,3.0,9.0,77,0.00,,---,0.00,VWS V14.01,2013-09-09 14:06:00,
2013-09-09 10:10:00,84.0,76.0,29.99,North,360,5.0,7.0,77,0.00,,---,0.00,VWS V14.01,2013-09-09 14:10:00,
2013-09-09 10:15:00,83.5,75.9,30.00,North,360,2.0,7.0,78,0.00,,---,0.00,VWS V14.01,2013-09-09 14:15:00,
2013-09-09 10:20:00,83.2,75.6,30.00,North,360,9.0,9.0,78,0.00,,---,0.00,VWS V14.01,2013-09-09 14:20:00,
2013-09-09 10:25:00,83.3,76.1,30.00,North,360,5.0,10.0,79,0.00,,---,0.00,VWS V14.01,2013-09-09 14:25:00,
2013-09-09 10:30:00,83.6,74.4,30.00,North,360,5.0,5.0,74,0.00,,---,0.00,VWS V14.01,2013-09-09 14:30:00,
2013-09-09 10:35:00,83.4,75.1,30.00,North,360,7.0,10.0,76,0.00,,---,0.00,VWS V14.01,2013-09-09 14:35:00,
2013-09-09 10:40:00,84.1,75.3,30.00,North,360,8.0,12.0,75,0.00,,---,0.00,VWS V14.01,2013-09-09 14:40:00,
2013-09-09 10:45:00,84.8,75.6,30.00,North,360,9.0,15.0,74,0.00,,---,0.00,VWS V14.01,2013-09-09 14:45:00,
2013-09-09 10:50:00,84.0,75.2,30.00,North,360,7.0,15.0,75,0.00,,---,0.00,VWS V14.01,2013-09-09 14:50:00,
2013-09-09 10:55:00,83.9,75.5,30.00,North,360,4.0,11.0,76,0.00,,---,0.00,VWS V14.01,2013-09-09 14:55:00,
2013-09-09 11:00:00,83.8,75.4,30.00,North,360,4.0,11.0,76,0.00,,---,0.00,VWS V14.01,2013-09-09 15:00:00,
2013-09-09 11:05:00,83.6,74.8,30.00,North,360,4.0,8.0,75,0.00,,---,0.00,VWS V14.01,2013-09-09 15:05:00,
2013-09-09 11:10:00,84.5,76.9,30.00,North,360,3.0,8.0,78,0.00,,---,0.00,VWS V14.01,2013-09-09 15:10:00,
2013-09-09 11:15:00,85.0,75.4,30.00,North,360,8.0,8.0,73,0.00,,---,0.00,VWS V14.01,2013-09-09 15:15:00,
2013-09-09 11:20:00,84.7,75.5,30.01,North,360,6.0,9.0,74,0.00,,---,0.00,VWS V14.01,2013-09-09 15:20:00,
2013-09-09 11:25:00,85.8,76.2,30.00,North,360,2.0,6.0,73,0.00,,---,0.00,VWS V14.01,2013-09-09 15:25:00,
2013-09-09 11:30:00,86.4,75.9,30.00,North,360,8.0,12.0,71,0.00,,---,0.00,VWS V14.01,2013-09-09 15:30:00,
2013-09-09 11:35:00,85.9,75.0,30.00,North,360,6.0,9.0,70,0.00,,---,0.00,VWS V14.01,2013-09-09 15:35:00,
2013-09-09 11:40:00,85.0,75.0,30.00,North,360,3.0,9.0,72,0.00,,---,0.00,VWS V14.01,2013-09-09 15:40:00,
2013-09-09 11:45:00,85.8,75.3,30.00,North,360,0.0,9.0,71,0.00,,---,0.00,VWS V14.01,2013-09-09 15:45:00,
2013-09-09 11:50:00,86.3,75.4,30.00,North,360,4.0,9.0,70,0.00,,---,0.00,VWS V14.01,2013-09-09 15:50:00,
2013-09-09 11:55:00,87.4,76.0,30.00,North,360,2.0,9.0,69,0.00,,---,0.00,VWS V14.01,2013-09-09 15:55:00,
2013-09-09 12:00:00,87.5,75.2,30.00,North,360,3.0,10.0,67,0.00,,---,0.00,VWS V14.01,2013-09-09 16:00:00,
2013-09-09 12:05:00,86.8,75.0,30.00,North,360,5.0,12.0,68,0.00,,---,0.00,VWS V14.01,2013-09-09 16:05:00,
2013-09-09 12:10:00,87.2,76.2,30.00,North,360,9.0,12.0,70,0.00,,---,0.00,VWS V14.01,2013-09-09 16:10:00,
2013-09-09 12:15:00,87.4,75.6,30.00,North,360,9.0,9.0,68,0.00,,---,0.00,VWS V14.01,2013-09-09 16:15:00,
2013-09-09 12:20:00,86.2,74.4,29.99,North,360,5.0,10.0,68,0.00,,---,0.00,VWS V14.01,2013-09-09 16:20:00,
2013-09-09 12:25:00,86.8,74.5,29.99,North,360,3.0,10.0,67,0.00,,---,0.00,VWS V14.01,2013-09-09 16:25:00,
2013-09-09 12:30:00,87.0,75.6,29.99,North,360,4.0,10.0,69,0.00,,---,0.00,VWS V14.01,2013-09-09 16:30:00,
2013-09-09 12:35:00,87.0,73.8,29.99,North,360,5.0,9.0,65,0.00,,---,0.00,VWS V14.01,2013-09-09 16:35:00,
2013-09-09 12:40:00,86.8,74.1,29.99,North,360,4.0,9.0,66,0.00,,---,0.00,VWS V14.01,2013-09-09 16:40:00,
2013-09-09 12:45:00,87.7,74.5,29.99,North,360,5.0,11.0,65,0.00,,---,0.00,VWS V14.01,2013-09-09 16:45:00,
2013-09-09 12:50:00,88.3,75.1,29.99,North,360,5.0,11.0,65,0.00,,---,0.00,VWS V14.01,2013-09-09 16:50:00,
2013-09-09 12:55:00,88.6,75.8,29.99,North,360,7.0,10.0,66,0.00,,---,0.00,VWS V14.01,2013-09-09 16:55:00,
2013-09-09 13:00:00,88.7,75.0,29.98,North,360,6.0,10.0,64,0.00,,---,0.00,VWS V14.01,2013-09-09 17:00:00,
2013-09-09 13:05:00,87.3,73.6,29.98,North,360,7.0,8.0,64,0.00,,---,0.00,VWS V14.01,2013-09-09 17:05:00,
2013-09-09 13:10:00,87.1,73.9,29.98,North,360,5.0,8.0,65,0.00,,---,0.00,VWS V14.01,2013-09-09 17:10:00,
2013-09-09 13:15:00,88.2,73.6,29.98,North,360,4.0,8.0,62,0.00,,---,0.00,VWS V14.01,2013-09-09 17:15:00,
2013-09-09 13:20:00,88.0,74.8,29.98,North,360,3.0,10.0,65,0.00,,---,0.00,VWS V14.01,2013-09-09 17:20:00,
2013-09-09 13:25:00,88.6,75.3,29.98,North,360,8.0,12.0,65,0.00,,---,0.00,VWS V14.01,2013-09-09 17:25:00,
2013-09-09 13:30:00,89.6,76.3,29.98,North,360,5.0,12.0,65,0.00,,---,0.00,VWS V14.01,2013-09-09 17:30:00,
2013-09-09 13:35:00,88.4,73.2,29.98,North,360,3.0,10.0,61,0.00,,---,0.00,VWS V14.01,2013-09-09 17:35:00,
2013-09-09 13:40:00,88.2,75.9,29.98,North,360,3.0,10.0,67,0.00,,---,0.00,VWS V14.01,2013-09-09 17:40:00,
2013-09-09 13:45:00,89.0,75.2,29.98,North,360,7.0,10.0,64,0.00,,---,0.00,VWS V14.01,2013-09-09 17:45:00,
2013-09-09 13:50:00,89.6,74.9,29.97,North,360,4.0,10.0,62,0.00,,---,0.00,VWS V14.01,2013-09-09 17:50:00,
2013-09-09 13:55:00,89.4,73.7,29.97,North,360,7.0,11.0,60,0.00,,---,0.00,VWS V14.01,2013-09-09 17:55:00,
2013-09-09 14:00:00,88.9,72.2,29.97,North,360,2.0,11.0,58,0.00,,---,0.00,VWS V14.01,2013-09-09 18:00:00,
2013-09-09 14:05:00,88.3,73.6,29.97,North,360,5.0,8.0,62,0.00,,---,0.00,VWS V14.01,2013-09-09 18:05:00,
2013-09-09 14:10:00,88.4,71.2,29.97,North,360,3.0,5.0,57,0.00,,---,0.00,VWS V14.01,2013-09-09 18:10:00,
2013-09-09 14:15:00,88.6,72.9,29.97,North,360,5.0,8.0,60,0.00,,---,0.00,VWS V14.01,2013-09-09 18:15:00,
2013-09-09 14:20:00,89.2,74.0,29.97,North,360,10.0,12.0,61,0.00,,---,0.00,VWS V14.01,2013-09-09 18:20:00,
2013-09-09 14:25:00,89.4,72.2,29.96,North,360,7.0,11.0,57,0.00,,---,0.00,VWS V14.01,2013-09-09 18:25:00,
2013-09-09 14:30:00,88.6,71.4,29.96,North,360,5.0,11.0,57,0.00,,---,0.00,VWS V14.01,2013-09-09 18:30:00,
2013-09-09 14:35:00,88.3,71.7,29.96,North,360,7.0,8.0,58,0.00,,---,0.00,VWS V14.01,2013-09-09 18:35:00,
2013-09-09 14:40:00,89.2,73.0,29.95,North,360,6.0,10.0,59,0.00,,---,0.00,VWS V14.01,2013-09-09 18:40:00,
2013-09-09 14:45:00,89.5,73.8,29.95,North,360,6.0,11.0,60,0.00,,---,0.00,VWS V14.01,2013-09-09 18:45:00,
2013-09-09 14:50:00,88.8,73.6,29.95,North,360,3.0,11.0,61,0.00,,---,0.00,VWS V14.01,2013-09-09 18:50:00,
2013-09-09 14:55:00,89.6,74.4,29.95,North,360,4.0,8.0,61,0.00,,---,0.00,VWS V14.01,2013-09-09 18:55:00,
2013-09-09 15:00:00,90.7,74.4,29.95,North,360,5.0,9.0,59,0.00,,---,0.00,VWS V14.01,2013-09-09 19:00:00,
2013-09-09 15:05:00,90.4,73.1,29.95,North,360,6.0,10.0,57,0.00,,---,0.00,VWS V14.01,2013-09-09 19:05:00,
2013-09-09 15:10:00,90.1,73.8,29.95,North,360,3.0,10.0,59,0.00,,---,0.00,VWS V14.01,2013-09-09 19:10:00,
2013-09-09 15:15:00,90.9,74.1,29.95,North,360,7.0,12.0,58,0.00,,---,0.00,VWS V14.01,2013-09-09 19:15:00,
2013-09-09 15:20:00,89.9,70.5,29.95,North,360,7.0,12.0,53,0.00,,---,0.00,VWS V14.01,2013-09-09 19:20:00,
2013-09-09 15:25:00,89.3,71.0,29.94,North,360,7.0,11.0,55,0.00,,---,0.00,VWS V14.01,2013-09-09 19:25:00,
2013-09-09 15:30:00,90.5,74.2,29.95,North,360,9.0,11.0,59,0.00,,---,0.00,VWS V14.01,2013-09-09 19:30:00,
2013-09-09 15:35:00,90.9,72.5,29.95,North,360,8.0,12.0,55,0.00,,---,0.00,VWS V14.01,2013-09-09 19:35:00,
2013-09-09 15:40:00,90.1,72.3,29.95,North,360,9.0,12.0,56,0.00,,---,0.00,VWS V14.01,2013-09-09 19:40:00,
2013-09-09 15:45:00,89.2,70.9,29.95,North,360,4.0,11.0,55,0.00,,---,0.00,VWS V14.01,2013-09-09 19:45:00,
2013-09-09 15:50:00,89.6,72.4,29.95,North,360,7.0,11.0,57,0.00,,---,0.00,VWS V14.01,2013-09-09 19:50:00,
2013-09-09 15:55:00,90.9,73.0,29.94,North,360,4.0,9.0,56,0.00,,---,0.00,VWS V14.01,2013-09-09 19:55:00,
2013-09-09 16:00:00,90.4,71.5,29.95,North,360,9.0,14.0,54,0.00,,---,0.00,VWS V14.01,2013-09-09 20:00:00,
2013-09-09 16:05:00,90.2,72.4,29.95,North,360,9.0,11.0,56,0.00,,---,0.00,VWS V14.01,2013-09-09 20:05:00,
2013-09-09 16:10:00,90.1,70.7,29.95,North,360,12.0,12.0,53,0.00,,---,0.00,VWS V14.01,2013-09-09 20:10:00,
2013-09-09 16:15:00,89.8,69.8,29.94,North,360,9.0,12.0,52,0.00,,---,0.00,VWS V14.01,2013-09-09 20:15:00,
2013-09-09 16:20:00,89.7,71.4,29.94,North,360,9.0,12.0,55,0.00,,---,0.00,VWS V14.01,2013-09-09 20:20:00,
2013-09-09 16:25:00,90.2,71.9,29.94,North,360,4.0,9.0,55,0.00,,---,0.00,VWS V14.01,2013-09-09 20:25:00,
2013-09-09 16:30:00,90.9,70.8,29.94,North,360,4.0,11.0,52,0.00,,---,0.00,VWS V14.01,2013-09-09 20:30:00,
2013-09-09 16:35:00,89.3,69.9,29.94,North,360,8.0,12.0,53,0.00,,---,0.00,VWS V14.01,2013-09-09 20:35:00,
2013-09-09 16:40:00,88.1,69.4,29.94,North,360,4.0,12.0,54,0.00,,---,0.00,VWS V14.01,2013-09-09 20:40:00,
2013-09-09 16:45:00,88.0,70.9,29.94,North,360,8.0,8.0,57,0.00,,---,0.00,VWS V14.01,2013-09-09 20:45:00,
2013-09-09 16:50:00,89.2,70.4,29.94,North,360,9.0,10.0,54,0.00,,---,0.00,VWS V14.01,2013-09-09 20:50:00,
2013-09-09 16:55:00,89.3,69.4,29.94,North,360,6.0,10.0,52,0.00,,---,0.00,VWS V14.01,2013-09-09 20:55:00,
2013-09-09 17:00:00,89.5,68.4,29.94,North,360,6.0,11.0,50,0.00,,---,0.00,VWS V14.01,2013-09-09 21:00:00,
2013-09-09 17:05:00,89.6,69.7,29.94,North,360,7.0,7.0,52,0.00,,---,0.00,VWS V14.01,2013-09-09 21:05:00,
2013-09-09 17:10:00,89.1,69.2,29.93,North,360,4.0,10.0,52,0.00,,---,0.00,VWS V14.01,2013-09-09 21:10:00,
2013-09-09 17:15:00,88.9,69.6,29.93,North,360,3.0,12.0,53,0.00,,---,0.00,VWS V14.01,2013-09-09 21:15:00,
2013-09-09 17:20:00,89.0,69.7,29.94,North,360,7.0,12.0,53,0.00,,---,0.00,VWS V14.01,2013-09-09 21:20:00,
2013-09-09 17:25:00,89.1,70.3,29.93,North,360,4.0,11.0,54,0.00,,---,0.00,VWS V14.01,2013-09-09 21:25:00,
2013-09-09 17:30:00,89.1,69.2,29.93,North,360,7.0,12.0,52,0.00,,---,0.00,VWS V14.01,2013-09-09 21:30:00,
2013-09-09 17:35:00,88.9,69.6,29.94,North,360,10.0,11.0,53,0.00,,---,0.00,VWS V14.01,2013-09-09 21:35:00,
2013-09-09 17:40:00,88.8,69.5,29.94,North,360,7.0,11.0,53,0.00,,---,0.00,VWS V14.01,2013-09-09 21:40:00,
2013-09-09 17:45:00,88.6,68.7,29.94,North,360,11.0,12.0,52,0.00,,---,0.00,VWS V14.01,2013-09-09 21:45:00,
2013-09-09 17:50:00,88.5,69.2,29.94,North,360,5.0,12.0,53,0.00,,---,0.00,VWS V14.01,2013-09-09 21:50:00,
2013-09-09 17:55:00,88.4,69.1,29.94,North,360,6.0,11.0,53,0.00,,---,0.00,VWS V14.01,2013-09-09 21:55:00,
2013-09-09 18:00:00,88.3,69.0,29.94,North,360,8.0,11.0,53,0.00,,---,0.00,VWS V14.01,2013-09-09 22:00:00,
2013-09-09 18:05:00,88.2,68.9,29.94,North,360,5.0,10.0,53,0.00,,---,0.00,VWS V14.01,2013-09-09 22:05:00,
2013-09-09 18:10:00,88.2,68.4,29.94,North,360,8.0,10.0,52,0.00,,---,0.00,VWS V14.01,2013-09-09 22:10:00,
2013-09-09 18:15:00,88.0,67.1,29.94,North,360,6.0,10.0,50,0.00,,---,0.00,VWS V14.01,2013-09-09 22:15:00,
2013-09-09 18:20:00,87.8,66.9,29.94,North,360,6.0,13.0,50,0.00,,---,0.00,VWS V14.01,2013-09-09 22:20:00,
2013-09-09 18:25:00,87.7,67.3,29.94,North,360,9.0,9.0,51,0.00,,---,0.00,VWS V14.01,2013-09-09 22:25:00,
2013-09-09 18:30:00,87.5,67.2,29.94,North,360,5.0,12.0,51,0.00,,---,0.00,VWS V14.01,2013-09-09 22:30:00,
2013-09-09 18:35:00,87.2,67.4,29.93,North,360,5.0,11.0,52,0.00,,---,0.00,VWS V14.01,2013-09-09 22:35:00,
2013-09-09 18:40:00,86.9,69.3,29.94,North,360,5.0,13.0,56,0.00,,---,0.00,VWS V14.01,2013-09-09 22:40:00,
2013-09-09 18:45:00,86.7,69.7,29.94,North,360,5.0,11.0,57,0.00,,---,0.00,VWS V14.01,2013-09-09 22:45:00,
2013-09-09 18:50:00,86.5,71.0,29.94,North,360,6.0,11.0,60,0.00,,---,0.00,VWS V14.01,2013-09-09 22:50:00,
2013-09-09 18:55:00,86.1,70.1,29.94,North,360,5.0,12.0,59,0.00,,---,0.00,VWS V14.01,2013-09-09 22:55:00,
2013-09-09 19:00:00,85.7,70.7,29.95,North,360,7.0,13.0,61,0.00,,---,0.00,VWS V14.01,2013-09-09 23:00:00,
2013-09-09 19:05:00,85.4,70.9,29.95,North,360,10.0,14.0,62,0.00,,---,0.00,VWS V14.01,2013-09-09 23:05:00,
2013-09-09 19:10:00,85.0,71.5,29.95,North,360,16.0,16.0,64,0.00,,---,0.00,VWS V14.01,2013-09-09 23:10:00,
2013-09-09 19:15:00,84.6,71.6,29.95,North,360,4.0,14.0,65,0.00,,---,0.00,VWS V14.01,2013-09-09 23:15:00,
2013-09-09 19:20:00,84.2,72.1,29.95,North,360,8.0,15.0,67,0.00,,---,0.00,VWS V14.01,2013-09-09 23:20:00,
2013-09-09 19:25:00,83.9,72.2,29.95,North,360,3.0,9.0,68,0.00,,---,0.00,VWS V14.01,2013-09-09 23:25:00,
2013-09-09 19:30:00,83.6,71.9,29.96,North,360,6.0,10.0,68,0.00,,---,0.00,VWS V14.01,2013-09-09 23:30:00,
2013-09-09 19:35:00,83.4,71.7,29.96,North,360,9.0,13.0,68,0.00,,---,0.00,VWS V14.01,2013-09-09 23:35:00,
2013-09-09 19:40:00,83.2,71.6,29.96,North,360,7.0,13.0,68,0.00,,---,0.00,VWS V14.01,2013-09-09 23:40:00,
2013-09-09 19:45:00,83.1,71.4,29.96,North,360,5.0,12.0,68,0.00,,---,0.00,VWS V14.01,2013-09-09 23:45:00,
2013-09-09 19:50:00,82.8,71.6,29.96,North,360,6.0,12.0,69,0.00,,---,0.00,VWS V14.01,2013-09-09 23:50:00,
2013-09-09 19:55:00,82.5,71.7,29.97,North,360,5.0,12.0,70,0.00,,---,0.00,VWS V14.01,2013-09-09 23:55:00,
2013-09-09 20:00:00,82.3,71.5,29.97,North,360,7.0,12.0,70,0.00,,---,0.00,VWS V14.01,2013-09-10 00:00:00,
2013-09-09 20:05:00,82.0,71.7,29.97,North,360,6.0,10.0,71,0.00,,---,0.00,VWS V14.01,2013-09-10 00:05:00,
2013-09-09 20:10:00,81.9,72.0,29.97,North,360,11.0,13.0,72,0.00,,---,0.00,VWS V14.01,2013-09-10 00:10:00,
2013-09-09 20:15:00,81.8,71.9,29.97,North,360,7.0,13.0,72,0.00,,---,0.00,VWS V14.01,2013-09-10 00:15:00,
2013-09-09 20:20:00,81.6,72.1,29.97,North,360,6.0,14.0,73,0.00,,---,0.00,VWS V14.01,2013-09-10 00:20:00,
2013-09-09 20:25:00,81.5,72.0,29.98,North,360,11.0,13.0,73,0.00,,---,0.00,VWS V14.01,2013-09-10 00:25:00,
2013-09-09 20:30:00,81.3,72.2,29.98,North,360,5.0,13.0,74,0.00,,---,0.00,VWS V14.01,2013-09-10 00:30:00,
2013-09-09 20:35:00,81.2,72.1,29.98,North,360,10.0,11.0,74,0.00,,---,0.00,VWS V14.01,2013-09-10 00:35:00,
2013-09-09 20:40:00,81.0,71.9,29.98,North,360,8.0,11.0,74,0.00,,---,0.00,VWS V14.01,2013-09-10 00:40:00,
2013-09-09 20:45:00,80.8,72.1,29.98,North,360,6.0,9.0,75,0.00,,---,0.00,VWS V14.01,2013-09-10 00:45:00,
2013-09-09 20:50:00,80.6,71.9,29.98,North,360,6.0,10.0,75,0.00,,---,0.00,VWS V14.01,2013-09-10 00:50:00,
2013-09-09 20:55:00,80.5,72.2,29.98,North,360,2.0,8.0,76,0.00,,---,0.00,VWS V14.01,2013-09-10 00:55:00,
2013-09-09 21:00:00,80.3,72.1,29.98,North,360,6.0,9.0,76,0.00,,---,0.00,VWS V14.01,2013-09-10 01:00:00,
2013-09-09 21:05:00,80.1,72.2,29.99,North,360,7.0,10.0,77,0.00,,---,0.00,VWS V14.01,2013-09-10 01:05:00,
2013-09-09 21:10:00,80.0,72.5,29.99,North,360,3.0,10.0,78,0.00,,---,0.00,VWS V14.01,2013-09-10 01:10:00,
2013-09-09 21:15:00,79.8,72.3,29.99,North,360,2.0,9.0,78,0.00,,---,0.00,VWS V14.01,2013-09-10 01:15:00,
2013-09-09 21:20:00,79.8,72.3,30.00,North,360,2.0,9.0,78,0.00,,---,0.00,VWS V14.01,2013-09-10 01:20:00,
2013-09-09 21:25:00,79.7,72.6,30.00,North,360,0.0,6.0,79,0.00,,---,0.00,VWS V14.01,2013-09-10 01:25:00,
2013-09-09 21:30:00,79.5,72.4,30.00,North,360,5.0,6.0,79,0.00,,---,0.00,VWS V14.01,2013-09-10 01:30:00,
2013-09-09 21:35:00,79.4,72.7,30.00,North,360,3.0,8.0,80,0.00,,---,0.00,VWS V14.01,2013-09-10 01:35:00,
2013-09-09 21:40:00,79.3,72.6,30.00,North,360,6.0,9.0,80,0.00,,---,0.00,VWS V14.01,2013-09-10 01:40:00,
2013-09-09 21:45:00,79.2,72.9,30.00,North,360,5.0,8.0,81,0.00,,---,0.00,VWS V14.01,2013-09-10 01:45:00,
2013-09-09 21:50:00,79.1,72.8,30.00,North,360,5.0,10.0,81,0.00,,---,0.00,VWS V14.01,2013-09-10 01:50:00,
2013-09-09 21:55:00,79.1,72.8,30.01,North,360,6.0,9.0,81,0.00,,---,0.00,VWS V14.01,2013-09-10 01:55:00,
2013-09-09 22:00:00,79.0,73.0,30.01,North,360,1.0,9.0,82,0.00,,---,0.00,VWS V14.01,2013-09-10 02:00:00,
2013-09-09 22:05:00,78.9,72.9,30.01,North,360,4.0,9.0,82,0.00,,---,0.00,VWS V14.01,2013-09-10 02:05:00,
2013-09-09 22:10:00,78.8,72.8,30.01,North,360,6.0,9.0,82,0.00,,---,0.00,VWS V14.01,2013-09-10 02:10:00,
2013-09-09 22:15:00,78.6,73.0,30.01,North,360,4.0,8.0,83,0.00,,---,0.00,VWS V14.01,2013-09-10 02:15:00,
2013-09-09 22:20:00,78.5,72.9,30.01,North,360,4.0,8.0,83,0.00,,---,0.00,VWS V14.01,2013-09-10 02:20:00,
2013-09-09 22:25:00,78.4,72.8,30.01,North,360,1.0,5.0,83,0.00,,---,0.00,VWS V14.01,2013-09-10 02:25:00,
2013-09-09 22:30:00,78.3,73.1,30.01,North,360,3.0,7.0,84,0.00,,---,0.00,VWS V14.01,2013-09-10 02:30:00,
2013-09-09 22:35:00,78.1,72.9,30.01,North,360,4.0,7.0,84,0.00,,---,0.00,VWS V14.01,2013-09-10 02:35:00,
2013-09-09 22:40:00,78.0,73.1,30.01,North,360,3.0,7.0,85,0.00,,---,0.00,VWS V14.01,2013-09-10 02:40:00,
2013-09-09 22:45:00,77.9,73.0,30.01,North,360,2.0,5.0,85,0.00,,---,0.00,VWS V14.01,2013-09-10 02:45:00,
2013-09-09 22:50:00,77.8,72.9,30.02,North,360,6.0,8.0,85,0.00,,---,0.00,VWS V14.01,2013-09-10 02:50:00,
2013-09-09 22:55:00,77.7,72.8,30.02,North,360,8.0,9.0,85,0.00,,---,0.00,VWS V14.01,2013-09-10 02:55:00,
2013-09-09 23:00:00,77.6,73.1,30.02,North,360,2.0,9.0,86,0.00,,---,0.00,VWS V14.01,2013-09-10 03:00:00,
2013-09-09 23:05:00,77.6,73.1,30.02,North,360,3.0,8.0,86,0.00,,---,0.00,VWS V14.01,2013-09-10 03:05:00,
2013-09-09 23:10:00,77.5,73.0,30.02,North,360,4.0,8.0,86,0.00,,---,0.00,VWS V14.01,2013-09-10 03:10:00,
2013-09-09 23:15:00,77.3,72.8,30.02,North,360,4.0,7.0,86,0.00,,---,0.00,VWS V14.01,2013-09-10 03:15:00,
2013-09-09 23:20:00,77.2,73.0,30.02,North,360,3.0,8.0,87,0.00,,---,0.00,VWS V14.01,2013-09-10 03:20:00,
2013-09-09 23:25:00,77.1,72.9,30.02,North,360,3.0,6.0,87,0.00,,---,0.00,VWS V14.01,2013-09-10 03:25:00,
2013-09-09 23:30:00,77.0,72.8,30.02,North,360,2.0,6.0,87,0.00,,---,0.00,VWS V14.01,2013-09-10 03:30:00,
2013-09-09 23:35:00,76.9,73.1,30.02,North,360,4.0,5.0,88,0.00,,---,0.00,VWS V14.01,2013-09-10 03:35:00,
2013-09-09 23:40:00,76.9,73.1,30.02,North,360,1.0,5.0,88,0.00,,---,0.00,VWS V14.01,2013-09-10 03:40:00,
2013-09-09 23:45:00,76.8,73.0,30.02,North,360,3.0,5.0,88,0.00,,---,0.00,VWS V14.01,2013-09-10 03:45:00,
2013-09-09 23:50:00,76.7,72.9,30.02,North,360,5.0,5.0,88,0.00,,---,0.00,VWS V14.01,2013-09-10 03:50:00,
2013-09-09 23:55:00,76.6,73.1,30.02,North,360,2.0,6.0,89,0.00,,---,0.00,VWS V14.01,2013-09-10 03:55:00,